{"data":{"norad_id":62011,"intl_designator":"2024-213D","name":"STARLINK-11330 [DTC]","alt_names":[],"object_type":"PAYLOAD","status":"ACTIVE","operator":null,"country":"US","launch_date":"2024-11-18","launch_site_code":"AFWTR","launch_vehicle":null,"mission":null,"orbit_class":"UNKNOWN","rcs_meters":null,"size_class":null,"mass_kg":null,"dimensions":null,"purposes":["comms"],"wikipedia_slug":null,"has_3d_model":false,"image_url":null,"decayed_at":null,"tle_current":{"epoch":"2026-05-24T21:52:46.509024Z","epoch_age_seconds":93075,"freshness":"FRESH","line1":"1 62011U 24213D   26144.91164941  .00114633  00000+0  93652-3 0  9999","line2":"2 62011  53.1579  25.7404 0000768  80.3510 279.7594 15.69748684 86883","mean_motion":15.69748684,"eccentricity":7.68e-5,"inclination_deg":53.1579,"raan_deg":25.7404,"arg_perigee_deg":80.351,"mean_anomaly_deg":279.7594,"bstar":0.00093652,"rev_number":8688,"period_min":91.734429509482,"perigee_km":359.09859445803,"apogee_km":360.13351332711,"semimajor_km":6737.7530538926,"source":"CELESTRAK","updated_at":"2026-05-25T13:38:19.518884Z"}}}